Retour au catalogue

CZ-6A DEB

ActifPO
NORAD 60849·DEBRIS·🇨🇳 China

Lancé Aug 6, 2024 depuis Taiyuan Satellite Launch Center

Loading…

Prochains Passages (prochaines 24 heures)

TLE

FraisSource: Space-Track

Époque: Sep 14, 2026, 07:06 UTC

1 60849U 24140JC  26257.29651120  .00001371  00000-0  21412-3 0  9991
2 60849  89.1244 270.7162 0144992 279.2141  79.2699 14.65439461111397

Suivez CZ-6A DEB en temps réel avec AllMySat

Download on the App Store